BEE705H EGJB-EGCC

Flight info

Callsign BEE705H
Flight time 0h 59m
Altitude 29000
Route SKERY L22 EMWIP P16 FIMCA DCT TOJAQ DCT EPACE DCT ACCOP DCT MOCQO/N0407F300 P16 AXCIS
Aircraft RJ1H/M-SDFGIRWY/LB1

Departure

Time 2026-05-07 08:42
Airport Guernsey Airport (EGJB)

Arrival

Time 2026-05-07 09:41
Airport Manchester Airport (EGCC)
Time Latitude Longitude Altitude Speed Heading
2026-05-07 08:16 49.43256 -2.59684 328 ft 0 kts 177°
2026-05-07 08:31 49.43281 -2.59686 327 ft 4 kts 176°
2026-05-07 08:32 49.43308 -2.59689 328 ft 4 kts 180°
2026-05-07 08:32 49.43334 -2.59682 328 ft 4 kts 207°
2026-05-07 08:32 49.43352 -2.59662 324 ft 4 kts 231°
2026-05-07 08:32 49.43362 -2.59625 326 ft 4 kts 265°
2026-05-07 08:33 49.43362 -2.59610 329 ft 0 kts 267°
2026-05-07 08:38 49.43362 -2.59624 326 ft 4 kts 267°
2026-05-07 08:38 49.43359 -2.59702 326 ft 10 kts 262°
2026-05-07 08:38 49.43345 -2.59840 324 ft 16 kts 268°
2026-05-07 08:38 49.43339 -2.60044 309 ft 22 kts 267°
2026-05-07 08:39 49.43332 -2.60311 294 ft 27 kts 268°
2026-05-07 08:39 49.43326 -2.60591 297 ft 25 kts 274°
2026-05-07 08:39 49.43355 -2.60846 306 ft 23 kts 280°
2026-05-07 08:39 49.43361 -2.61087 311 ft 23 kts 268°
2026-05-07 08:40 49.43384 -2.61300 314 ft 19 kts 312°
2026-05-07 08:40 49.43455 -2.61359 315 ft 11 kts
2026-05-07 08:40 49.43468 -2.61276 314 ft 8 kts 85°
2026-05-07 08:40 49.43468 -2.61269 315 ft 0 kts 85°
2026-05-07 08:41 49.43471 -2.61191 314 ft 34 kts 87°
2026-05-07 08:41 49.43491 -2.60444 309 ft 102 kts 88°
2026-05-07 08:41 49.43514 -2.59213 603 ft 119 kts 93°
2026-05-07 08:42 49.43540 -2.57813 929 ft 137 kts 92°
2026-05-07 08:42 49.43583 -2.56359 1595 ft 135 kts 90°
2026-05-07 08:42 49.43686 -2.54924 2255 ft 134 kts 88°
2026-05-07 08:42 49.43801 -2.53507 2775 ft 133 kts 86°
2026-05-07 08:43 49.44085 -2.52150 3137 ft 144 kts 46°
2026-05-07 08:43 49.45042 -2.51695 3449 ft 159 kts 349°
2026-05-07 08:43 49.45956 -2.52665 3746 ft 169 kts 296°
2026-05-07 08:43 49.46368 -2.54380 4173 ft 174 kts 287°
2026-05-07 08:44 49.46800 -2.56149 4654 ft 179 kts 290°
2026-05-07 08:44 49.47276 -2.57944 5147 ft 183 kts 291°
2026-05-07 08:44 49.47803 -2.59754 5614 ft 189 kts 293°
2026-05-07 08:44 49.48404 -2.61592 6043 ft 195 kts 295°
2026-05-07 08:45 49.49078 -2.63481 6275 ft 212 kts 297°
2026-05-07 08:45 49.49882 -2.65598 6326 ft 245 kts 298°
2026-05-07 08:45 49.50818 -2.67918 6780 ft 264 kts 301°
2026-05-07 08:45 49.51849 -2.70350 7371 ft 278 kts 301°
2026-05-07 08:46 49.52928 -2.72791 8228 ft 280 kts 302°
2026-05-07 08:46 49.54027 -2.75285 9111 ft 283 kts 303°
2026-05-07 08:46 49.55168 -2.77772 9974 ft 287 kts 306°
2026-05-07 08:46 49.56475 -2.80126 10700 ft 291 kts 310°
2026-05-07 08:47 49.57872 -2.82423 11413 ft 295 kts 311°
2026-05-07 08:47 49.59295 -2.84725 12103 ft 299 kts 313°
2026-05-07 08:47 49.60986 -2.86640 12773 ft 304 kts 329°
2026-05-07 08:47 49.62873 -2.88227 13195 ft 316 kts 330°
2026-05-07 08:48 49.64877 -2.89820 13393 ft 332 kts 331°
2026-05-07 08:48 49.66985 -2.91438 13610 ft 343 kts 332°
2026-05-07 08:48 49.69139 -2.93074 13995 ft 346 kts 332°
2026-05-07 08:48 49.71280 -2.94702 14312 ft 349 kts 333°
2026-05-07 08:49 49.73465 -2.96373 14661 ft 351 kts 332°
2026-05-07 08:49 49.75654 -2.98070 15039 ft 351 kts 331°
2026-05-07 08:49 49.77838 -2.99787 15393 ft 352 kts 331°
2026-05-07 08:49 49.80028 -3.01519 15756 ft 354 kts 331°
2026-05-07 08:50 49.82225 -3.03261 16075 ft 356 kts 332°
2026-05-07 08:50 49.84437 -3.05010 16401 ft 358 kts 331°
2026-05-07 08:50 49.86635 -3.06738 16740 ft 359 kts 332°
2026-05-07 08:50 49.88864 -3.08505 17072 ft 360 kts 331°
2026-05-07 08:51 49.91100 -3.10284 17399 ft 362 kts 331°
2026-05-07 08:51 49.93346 -3.12068 17732 ft 364 kts 331°
2026-05-07 08:51 49.95599 -3.13864 18054 ft 365 kts 331°
2026-05-07 08:51 49.97863 -3.15670 18370 ft 366 kts 331°
2026-05-07 08:52 49.99947 -3.17908 18611 ft 364 kts 311°
2026-05-07 08:52 50.01465 -3.21052 18857 ft 364 kts 301°
2026-05-07 08:52 50.02817 -3.24394 19134 ft 366 kts 300°
2026-05-07 08:52 50.04103 -3.27814 19417 ft 366 kts 298°
2026-05-07 08:53 50.05494 -3.31144 19664 ft 370 kts 311°
2026-05-07 08:53 50.07535 -3.33612 19915 ft 374 kts 327°
2026-05-07 08:53 50.09799 -3.35634 20174 ft 376 kts 329°
2026-05-07 08:53 50.12122 -3.37540 20456 ft 378 kts 331°
2026-05-07 08:54 50.14484 -3.39371 20730 ft 379 kts 332°
2026-05-07 08:54 50.16855 -3.41189 21016 ft 380 kts 332°
2026-05-07 08:54 50.19228 -3.43031 21281 ft 381 kts 332°
2026-05-07 08:54 50.21599 -3.44897 21544 ft 383 kts 331°
2026-05-07 08:55 50.23971 -3.46804 21831 ft 384 kts 331°
2026-05-07 08:55 50.26346 -3.48723 22105 ft 385 kts 331°
2026-05-07 08:55 50.28730 -3.50659 22382 ft 387 kts 331°
2026-05-07 08:55 50.31122 -3.52602 22659 ft 388 kts 331°
2026-05-07 08:56 50.33496 -3.54537 22916 ft 390 kts 331°
2026-05-07 08:56 50.35911 -3.56503 23189 ft 391 kts 331°
2026-05-07 08:56 50.38330 -3.58478 23475 ft 393 kts 331°
2026-05-07 08:56 50.40759 -3.60452 23723 ft 394 kts 331°
2026-05-07 08:57 50.43199 -3.62436 23925 ft 395 kts 331°
2026-05-07 08:57 50.45659 -3.64365 24148 ft 397 kts 336°
2026-05-07 08:57 50.48351 -3.65381 24329 ft 401 kts 351°
2026-05-07 08:57 50.51138 -3.65760 24525 ft 403 kts 357°
2026-05-07 08:58 50.53956 -3.65670 24679 ft 407 kts
2026-05-07 08:58 50.56774 -3.65250 24913 ft 407 kts
2026-05-07 08:58 50.59587 -3.64690 25168 ft 407 kts
2026-05-07 08:58 50.62383 -3.64085 25445 ft 406 kts
2026-05-07 08:59 50.65147 -3.63480 25698 ft 405 kts
2026-05-07 08:59 50.67936 -3.62889 25943 ft 404 kts
2026-05-07 08:59 50.70729 -3.62327 26198 ft 404 kts
2026-05-07 08:59 50.73517 -3.61799 26444 ft 403 kts
2026-05-07 09:00 50.76301 -3.61280 26651 ft 403 kts
2026-05-07 09:00 50.79084 -3.60765 26891 ft 402 kts
2026-05-07 09:00 50.81857 -3.60246 27127 ft 402 kts
2026-05-07 09:00 50.84634 -3.59693 27348 ft 401 kts
2026-05-07 09:01 50.87407 -3.59150 27548 ft 401 kts
2026-05-07 09:01 50.90178 -3.58613 27773 ft 401 kts
2026-05-07 09:01 50.92937 -3.58083 28001 ft 400 kts
2026-05-07 09:01 50.95704 -3.57545 28188 ft 400 kts
2026-05-07 09:02 50.98462 -3.57015 28433 ft 398 kts
2026-05-07 09:02 51.01214 -3.56477 28606 ft 399 kts
2026-05-07 09:02 51.03935 -3.55950 28800 ft 398 kts
2026-05-07 09:02 51.06671 -3.55426 28988 ft 396 kts
2026-05-07 09:03 51.12107 -3.54368 29041 ft 391 kts
2026-05-07 09:03 51.17524 -3.53318 29042 ft 391 kts
2026-05-07 09:04 51.22929 -3.52252 29045 ft 392 kts
2026-05-07 09:04 51.28364 -3.51183 29050 ft 393 kts
2026-05-07 09:05 51.33752 -3.50159 29052 ft 392 kts
2026-05-07 09:05 51.39175 -3.49054 29052 ft 393 kts
2026-05-07 09:06 51.44608 -3.48008 29054 ft 393 kts
2026-05-07 09:06 51.50044 -3.46906 29052 ft 394 kts
2026-05-07 09:07 51.55489 -3.45879 29052 ft 394 kts
2026-05-07 09:07 51.60012 -3.44972 29058 ft 394 kts
2026-05-07 09:08 51.65458 -3.43857 29055 ft 394 kts
2026-05-07 09:08 51.71795 -3.42572 29057 ft 395 kts
2026-05-07 09:09 51.76366 -3.41668 29058 ft 395 kts
2026-05-07 09:09 51.81797 -3.40578 29058 ft 395 kts
2026-05-07 09:10 51.87246 -3.39461 29048 ft 394 kts
2026-05-07 09:10 51.92686 -3.38391 29048 ft 394 kts
2026-05-07 09:11 51.98164 -3.37825 29039 ft 394 kts
2026-05-07 09:11 52.03649 -3.37500 29043 ft 394 kts
2026-05-07 09:12 52.09140 -3.37177 29038 ft 394 kts
2026-05-07 09:12 52.14626 -3.36756 29046 ft 395 kts
2026-05-07 09:13 52.20079 -3.36370 29043 ft 395 kts
2026-05-07 09:13 52.25578 -3.35958 28787 ft 399 kts
2026-05-07 09:14 52.28365 -3.35733 28265 ft 402 kts
2026-05-07 09:14 52.31155 -3.35540 27732 ft 402 kts
2026-05-07 09:14 52.33953 -3.35363 27203 ft 403 kts
2026-05-07 09:14 52.36756 -3.35175 26689 ft 404 kts
2026-05-07 09:15 52.39571 -3.34958 26196 ft 406 kts
2026-05-07 09:15 52.42397 -3.34739 25700 ft 407 kts
2026-05-07 09:15 52.45242 -3.34534 25210 ft 409 kts
2026-05-07 09:15 52.48089 -3.34330 24732 ft 410 kts
2026-05-07 09:16 52.50942 -3.34115 24246 ft 410 kts
2026-05-07 09:16 52.53800 -3.33891 23789 ft 412 kts
2026-05-07 09:16 52.56630 -3.33660 23281 ft 413 kts
2026-05-07 09:16 52.59501 -3.33437 22733 ft 410 kts
2026-05-07 09:17 52.62327 -3.32985 22197 ft 406 kts 10°
2026-05-07 09:17 52.65072 -3.31958 21658 ft 402 kts 16°
2026-05-07 09:17 52.67729 -3.30581 21141 ft 400 kts 19°
2026-05-07 09:17 52.70339 -3.29040 20619 ft 397 kts 20°
2026-05-07 09:18 52.72912 -3.27444 20240 ft 394 kts 21°
2026-05-07 09:18 52.75470 -3.25839 20093 ft 393 kts 21°
2026-05-07 09:18 52.78032 -3.24253 20057 ft 393 kts 20°
2026-05-07 09:18 52.80591 -3.22678 20039 ft 391 kts 20°
2026-05-07 09:19 52.83157 -3.21143 20044 ft 394 kts 20°
2026-05-07 09:19 52.85731 -3.19621 20051 ft 392 kts 19°
2026-05-07 09:19 52.88336 -3.18269 20046 ft 393 kts 14°
2026-05-07 09:19 52.91027 -3.17429 20049 ft 393 kts
2026-05-07 09:20 52.93742 -3.16971 20046 ft 393 kts
2026-05-07 09:20 52.96485 -3.16702 20049 ft 393 kts
2026-05-07 09:20 52.99184 -3.16538 20053 ft 393 kts
2026-05-07 09:20 53.01924 -3.16390 20053 ft 395 kts
2026-05-07 09:21 53.04678 -3.16215 20010 ft 396 kts
2026-05-07 09:21 53.07429 -3.16034 19669 ft 396 kts
2026-05-07 09:21 53.10168 -3.15845 19181 ft 391 kts
2026-05-07 09:21 53.12870 -3.15642 18697 ft 385 kts
2026-05-07 09:22 53.15525 -3.15435 18196 ft 380 kts
2026-05-07 09:22 53.18144 -3.15217 17645 ft 375 kts
2026-05-07 09:22 53.20738 -3.14995 17108 ft 371 kts
2026-05-07 09:22 53.23301 -3.14777 16587 ft 366 kts
2026-05-07 09:23 53.25837 -3.14553 16067 ft 363 kts
2026-05-07 09:23 53.28339 -3.14345 15549 ft 359 kts
2026-05-07 09:23 53.30826 -3.14169 15042 ft 355 kts
2026-05-07 09:23 53.33291 -3.13987 14550 ft 354 kts
2026-05-07 09:24 53.35744 -3.13772 14072 ft 351 kts
2026-05-07 09:24 53.38118 -3.13003 13553 ft 348 kts 23°
2026-05-07 09:24 53.40031 -3.10698 13041 ft 343 kts 49°
2026-05-07 09:24 53.41434 -3.07510 12514 ft 338 kts 58°
2026-05-07 09:25 53.42677 -3.04191 12057 ft 333 kts 60°
2026-05-07 09:25 53.43831 -3.00860 11648 ft 328 kts 62°
2026-05-07 09:25 53.44934 -2.97535 11217 ft 324 kts 62°
2026-05-07 09:25 53.46015 -2.94230 10791 ft 321 kts 63°
2026-05-07 09:26 53.47087 -2.90975 10373 ft 318 kts 63°
2026-05-07 09:26 53.48167 -2.87746 9958 ft 315 kts 63°
2026-05-07 09:26 53.49245 -2.84569 9499 ft 311 kts 62°
2026-05-07 09:26 53.50232 -2.81364 9045 ft 307 kts 67°
2026-05-07 09:27 53.51065 -2.78110 8743 ft 300 kts 69°
2026-05-07 09:27 53.51851 -2.74939 8488 ft 295 kts 69°
2026-05-07 09:27 53.53403 -2.68616 7968 ft 290 kts 70°
2026-05-07 09:28 53.54158 -2.65471 7709 ft 290 kts 69°
2026-05-07 09:28 53.54914 -2.62332 7463 ft 289 kts 70°
2026-05-07 09:28 53.55656 -2.59208 7211 ft 286 kts 70°
2026-05-07 09:28 53.56400 -2.56025 6653 ft 295 kts 69°
2026-05-07 09:29 53.57141 -2.52799 6369 ft 293 kts 69°
2026-05-07 09:29 53.57865 -2.49621 6111 ft 289 kts 70°
2026-05-07 09:29 53.58585 -2.46479 5858 ft 287 kts 70°
2026-05-07 09:29 53.59305 -2.43370 5604 ft 274 kts 70°
2026-05-07 09:30 53.59960 -2.40561 5324 ft 259 kts 70°
2026-05-07 09:30 53.60625 -2.37721 5091 ft 261 kts 70°
2026-05-07 09:30 53.61300 -2.34874 4880 ft 262 kts 70°
2026-05-07 09:30 53.61964 -2.32081 4670 ft 258 kts 70°
2026-05-07 09:31 53.62431 -2.29232 4451 ft 249 kts 88°
2026-05-07 09:31 53.62537 -2.26346 4252 ft 245 kts 89°
2026-05-07 09:31 53.62645 -2.23492 4060 ft 243 kts 89°
2026-05-07 09:31 53.62746 -2.20655 3877 ft 242 kts 89°
2026-05-07 09:32 53.62831 -2.17827 3702 ft 240 kts 94°
2026-05-07 09:32 53.62385 -2.15246 3573 ft 225 kts 131°
2026-05-07 09:32 53.61346 -2.13380 3537 ft 213 kts 138°
2026-05-07 09:32 53.60329 -2.11627 3514 ft 205 kts 138°
2026-05-07 09:33 53.59336 -2.09963 3511 ft 197 kts 139°
2026-05-07 09:33 53.58752 -2.09001 3545 ft 188 kts 139°
2026-05-07 09:33 53.58128 -2.07976 3559 ft 180 kts 140°
2026-05-07 09:34 53.57238 -2.06529 3575 ft 178 kts 139°
2026-05-07 09:34 53.56350 -2.05106 3561 ft 180 kts 140°
2026-05-07 09:34 53.55423 -2.03650 3553 ft 180 kts 141°
2026-05-07 09:34 53.54514 -2.02266 3529 ft 177 kts 149°
2026-05-07 09:35 53.53358 -2.01890 3545 ft 172 kts 186°
2026-05-07 09:35 53.52159 -2.02104 3571 ft 173 kts 187°
2026-05-07 09:35 53.50959 -2.02370 3571 ft 176 kts 188°
2026-05-07 09:35 53.49745 -2.02665 3564 ft 175 kts 188°
2026-05-07 09:36 53.48548 -2.02979 3567 ft 175 kts 189°
2026-05-07 09:36 53.47366 -2.03432 3542 ft 176 kts 204°
2026-05-07 09:36 53.46499 -2.04845 3539 ft 176 kts 232°
2026-05-07 09:36 53.45691 -2.06421 3325 ft 177 kts 224°
2026-05-07 09:37 53.44886 -2.07924 3066 ft 170 kts 226°
2026-05-07 09:37 53.44145 -2.09414 2834 ft 163 kts 227°
2026-05-07 09:37 53.43437 -2.10874 2629 ft 160 kts 227°
2026-05-07 09:37 53.42740 -2.12324 2423 ft 159 kts 227°
2026-05-07 09:38 53.42042 -2.13759 2201 ft 157 kts 227°
2026-05-07 09:38 53.41373 -2.15146 1971 ft 149 kts 226°
2026-05-07 09:38 53.40755 -2.16439 1761 ft 134 kts 226°
2026-05-07 09:38 53.40205 -2.17574 1577 ft 123 kts 225°
2026-05-07 09:39 53.39671 -2.18669 1415 ft 121 kts 226°
2026-05-07 09:39 53.39135 -2.19756 1263 ft 120 kts 226°
2026-05-07 09:39 53.38593 -2.20814 1093 ft 121 kts 226°
2026-05-07 09:39 53.38062 -2.21903 946 ft 122 kts 227°
2026-05-07 09:40 53.37522 -2.23038 778 ft 127 kts 227°
2026-05-07 09:40 53.36966 -2.24188 596 ft 127 kts 229°
2026-05-07 09:40 53.36411 -2.25347 403 ft 127 kts 229°
2026-05-07 09:40 53.35863 -2.26480 267 ft 118 kts 229°
2026-05-07 09:41 53.35400 -2.27434 259 ft 94 kts 232°
2026-05-07 09:41 53.35052 -2.28167 237 ft 55 kts 234°
2026-05-07 09:41 53.34950 -2.28571 236 ft 28 kts 259°
2026-05-07 09:41 53.34965 -2.28735 231 ft 14 kts 321°
2026-05-07 09:42 53.35041 -2.28692 232 ft 11 kts 49°
2026-05-07 09:42 53.35085 -2.28604 232 ft 9 kts 50°
2026-05-07 09:42 53.35129 -2.28512 230 ft 12 kts 51°
2026-05-07 09:42 53.35181 -2.28405 231 ft 11 kts 51°
2026-05-07 09:43 53.35227 -2.28309 233 ft 11 kts 51°
2026-05-07 09:43 53.35280 -2.28207 235 ft 12 kts 45°
2026-05-07 09:43 53.35334 -2.28118 239 ft 10 kts 44°
2026-05-07 09:43 53.35389 -2.28030 242 ft 12 kts 44°
2026-05-07 09:44 53.35451 -2.27929 245 ft 13 kts 44°
2026-05-07 09:44 53.35518 -2.27821 247 ft 14 kts 43°
2026-05-07 09:44 53.35597 -2.27694 247 ft 17 kts 44°
2026-05-07 09:44 53.35683 -2.27537 247 ft 18 kts 50°
2026-05-07 09:45 53.35757 -2.27385 247 ft 14 kts 51°
2026-05-07 09:45 53.35838 -2.27316 247 ft 13 kts
2026-05-07 09:45 53.35894 -2.27317 247 ft 1 kts 359°
2026-05-07 09:45 53.35899 -2.27318 247 ft 0 kts 359°
2026-05-07 09:46 53.35903 -2.27318 247 ft 2 kts 359°
2026-05-07 09:46 53.35926 -2.27326 247 ft 4 kts 320°
2026-05-07 09:46 53.35933 -2.27371 247 ft 4 kts 275°
2026-05-07 09:46 53.35935 -2.27404 247 ft 1 kts 276°
2026-05-07 09:47 53.35935 -2.27407 247 ft 0 kts 276°